Tracking 35030 objects as of 11-Aug-2026
HD Live streaming from Space Station
objects crossing your sky now

ARKTIKA-M 2

Track ARKTIKA-M 2 now!


NORAD ID: 58584
Int'l Code: 2023-198A
Launch date: December 16, 2023
Source: Commonwealth of Independent States (former USSR) (CIS)
Launch site: TYURATAM MISSILE AND SPACE COMPLEX (TTMTR)
Your satellite tracking list
Your tracking list is empty




NASA's NSSDC Master Catalog

Two Line Element Set (TLE):
1 58584U 23198A   26219.10521235  .00000136  00000-0  00000-0 0  9992
2 58584  63.2149 148.6536 6917747 267.2755  18.7218  2.00601182 19349
Source of the keplerian elements: AFSPC